Location: Rosenheim
(47.8408°N, 12.2113°E)
Time: 03:45:54
(UTC+02:00)

ISS - Pass Details

Date: 08 January 2018
Orbit: 401 x 409 km, 51.6° (Epoch: 20 August)

Event Time Altitude Azimuth Distance (km) Brightness Sun altitude
Exits shadow 05:14:37 21° 60° (ENE) 1,003 -1.3 -26.7°
Drops below altitude 10° 05:16:00 10° 72° (ENE) 1,512 -0.1 -26.5°
Sets 05:18:12 0° 80° (E) 2,380 1.3 -26.1°
